Time,TemperatureF,DewpointF,PressureIn,WindDirection,WindDirectionDegrees,WindSpeedMPH,WindSpeedGustMPH,Humidity,HourlyPrecipIn,Conditions,Clouds,dailyrainin,SoftwareType,DateUTC
2013-08-12 00:03:00,77.3,70.7,30.00,SE,131,0.0,3.0,80,0.00,,---,0.00,VWS V14.01,2013-08-12 05:03:00,
2013-08-12 00:08:00,77.2,70.6,30.00,SSE,166,1.0,4.0,80,0.00,,---,0.00,VWS V14.01,2013-08-12 05:08:00,
2013-08-12 00:13:00,77.1,70.5,30.00,SE,131,1.0,5.0,80,0.00,,---,0.00,VWS V14.01,2013-08-12 05:13:00,
2013-08-12 00:18:00,76.9,70.3,30.00,SE,134,2.0,3.0,80,0.00,,---,0.00,VWS V14.01,2013-08-12 05:18:00,
2013-08-12 00:23:00,76.8,70.5,30.00,SE,141,0.0,3.0,81,0.00,,---,0.00,VWS V14.01,2013-08-12 05:23:00,
2013-08-12 00:28:00,76.8,70.5,30.00,ENE,64,1.0,3.0,81,0.00,,---,0.00,VWS V14.01,2013-08-12 05:28:00,
2013-08-12 00:33:00,76.8,70.5,30.00,ESE,108,3.0,3.0,81,0.00,,---,0.00,VWS V14.01,2013-08-12 05:33:00,
2013-08-12 00:38:00,76.8,70.5,30.00,SE,124,1.0,4.0,81,0.00,,---,0.00,VWS V14.01,2013-08-12 05:38:00,
2013-08-12 00:43:00,76.9,70.6,30.00,ESE,122,0.0,4.0,81,0.00,,---,0.00,VWS V14.01,2013-08-12 05:43:00,
2013-08-12 00:48:00,76.8,70.5,30.00,NE,53,3.0,5.0,81,0.00,,---,0.00,VWS V14.01,2013-08-12 05:48:00,
2013-08-12 00:53:00,76.7,70.4,30.01,SE,134,0.0,5.0,81,0.00,,---,0.00,VWS V14.01,2013-08-12 05:53:00,
2013-08-12 00:58:00,76.6,70.7,30.01,SE,139,0.0,5.0,82,0.00,,---,0.00,VWS V14.01,2013-08-12 05:58:00,
2013-08-12 01:00:00,76.6,70.7,30.01,SE,138,0.0,5.0,82,0.00,,---,0.00,VWS V14.01,2013-08-12 06:00:00,
2013-08-12 01:05:00,76.4,70.5,30.01,SE,146,0.0,1.0,82,0.00,,---,0.00,VWS V14.01,2013-08-12 06:05:00,
2013-08-12 01:10:00,76.4,70.9,30.01,SE,145,0.0,1.0,83,0.00,,---,0.00,VWS V14.01,2013-08-12 06:10:00,
2013-08-12 01:15:00,76.3,70.8,30.01,SSE,166,0.0,1.0,83,0.00,,---,0.00,VWS V14.01,2013-08-12 06:15:00,
2013-08-12 01:20:00,76.3,70.8,30.01,SE,145,0.0,3.0,83,0.00,,---,0.00,VWS V14.01,2013-08-12 06:20:00,
2013-08-12 01:25:00,76.3,70.8,30.01,SE,142,3.0,3.0,83,0.00,,---,0.00,VWS V14.01,2013-08-12 06:25:00,
2013-08-12 01:30:00,76.2,70.7,30.01,SE,141,0.0,3.0,83,0.00,,---,0.00,VWS V14.01,2013-08-12 06:30:00,
2013-08-12 01:35:00,76.2,70.7,30.01,SSE,149,0.0,2.0,83,0.00,,---,0.00,VWS V14.01,2013-08-12 06:35:00,
2013-08-12 01:40:00,76.2,70.7,30.01,SSE,166,0.0,4.0,83,0.00,,---,0.00,VWS V14.01,2013-08-12 06:40:00,
2013-08-12 01:45:00,76.1,70.9,30.00,South,187,0.0,4.0,84,0.00,,---,0.00,VWS V14.01,2013-08-12 06:45:00,
2013-08-12 01:50:00,76.0,70.8,30.00,WSW,239,0.0,4.0,84,0.00,,---,0.00,VWS V14.01,2013-08-12 06:50:00,
2013-08-12 01:55:00,75.9,71.1,30.00,South,170,4.0,4.0,85,0.00,,---,0.00,VWS V14.01,2013-08-12 06:55:00,
2013-08-12 02:00:00,75.6,71.1,30.00,SW,235,1.0,6.0,86,0.00,,---,0.00,VWS V14.01,2013-08-12 07:00:00,
2013-08-12 02:05:00,75.3,71.2,30.00,SE,140,3.0,6.0,87,0.00,,---,0.00,VWS V14.01,2013-08-12 07:05:00,
2013-08-12 02:10:00,75.2,71.4,30.00,SE,140,2.0,6.0,88,0.00,,---,0.00,VWS V14.01,2013-08-12 07:10:00,
2013-08-12 02:15:00,75.2,71.4,30.00,South,186,0.0,6.0,88,0.00,,---,0.00,VWS V14.01,2013-08-12 07:15:00,
2013-08-12 02:20:00,75.3,71.5,30.00,SE,126,3.0,4.0,88,0.00,,---,0.00,VWS V14.01,2013-08-12 07:20:00,
2013-08-12 02:25:00,75.5,71.4,30.00,SE,126,0.0,4.0,87,0.00,,---,0.00,VWS V14.01,2013-08-12 07:25:00,
2013-08-12 02:30:00,75.6,71.5,30.00,WSW,250,0.0,4.0,87,0.00,,---,0.00,VWS V14.01,2013-08-12 07:30:00,
2013-08-12 02:35:00,75.6,71.5,30.00,SE,142,0.0,3.0,87,0.00,,---,0.00,VWS V14.01,2013-08-12 07:35:00,
2013-08-12 02:40:00,75.6,71.5,30.00,SE,139,0.0,3.0,87,0.00,,---,0.00,VWS V14.01,2013-08-12 07:40:00,
2013-08-12 02:45:00,75.6,71.5,30.01,SW,229,0.0,3.0,87,0.00,,---,0.00,VWS V14.01,2013-08-12 07:45:00,
2013-08-12 02:50:00,75.5,71.4,30.01,South,173,0.0,1.0,87,0.01,,---,0.01,VWS V14.01,2013-08-12 07:50:00,
2013-08-12 02:55:00,75.4,71.6,30.01,SE,145,0.0,1.0,88,0.01,,---,0.01,VWS V14.01,2013-08-12 07:55:00,
2013-08-12 03:00:00,75.3,71.5,30.01,SE,129,0.0,1.0,88,0.01,,---,0.01,VWS V14.01,2013-08-12 08:00:00,
2013-08-12 03:05:00,75.3,71.5,30.01,SE,139,1.0,1.0,88,0.01,,---,0.01,VWS V14.01,2013-08-12 08:05:00,
2013-08-12 03:10:00,75.3,71.8,30.01,SE,145,0.0,1.0,89,0.01,,---,0.01,VWS V14.01,2013-08-12 08:10:00,
2013-08-12 03:15:00,75.2,72.1,30.01,SE,134,0.0,1.0,90,0.01,,---,0.01,VWS V14.01,2013-08-12 08:15:00,
2013-08-12 03:20:00,75.1,72.0,30.00,SE,145,1.0,1.0,90,0.01,,---,0.01,VWS V14.01,2013-08-12 08:20:00,
2013-08-12 03:25:00,75.0,71.9,30.00,ENE,78,0.0,1.0,90,0.01,,---,0.01,VWS V14.01,2013-08-12 08:25:00,
2013-08-12 03:30:00,74.9,71.8,30.00,NW,319,0.0,1.0,90,0.01,,---,0.01,VWS V14.01,2013-08-12 08:30:00,
2013-08-12 03:35:00,73.7,68.6,30.03,NNE,26,8.0,21.0,84,0.01,,---,0.01,VWS V14.01,2013-08-12 08:35:00,
2013-08-12 03:40:00,71.7,66.9,30.02,WNW,303,18.0,21.0,85,0.01,,---,0.01,VWS V14.01,2013-08-12 08:40:00,
2013-08-12 03:45:00,70.1,65.7,30.03,NNW,342,14.0,21.0,86,0.01,,---,0.01,VWS V14.01,2013-08-12 08:45:00,
2013-08-12 03:50:00,68.9,65.5,30.03,ENE,62,3.0,23.0,89,0.01,,---,0.01,VWS V14.01,2013-08-12 08:50:00,
2013-08-12 03:55:00,68.1,65.4,30.04,West,271,5.0,23.0,91,0.03,,---,0.03,VWS V14.01,2013-08-12 08:55:00,
2013-08-12 04:00:00,67.6,65.5,30.04,ENE,59,5.0,23.0,93,0.04,,---,0.04,VWS V14.01,2013-08-12 09:00:00,
2013-08-12 04:05:00,67.2,65.4,30.03,NE,56,5.0,12.0,94,0.08,,---,0.09,VWS V14.01,2013-08-12 09:05:00,
2013-08-12 04:10:00,67.0,65.5,30.03,WNW,301,6.0,12.0,95,0.09,,---,0.10,VWS V14.01,2013-08-12 09:10:00,
2013-08-12 04:15:00,66.9,65.7,30.06,WNW,290,1.0,12.0,96,0.14,,---,0.15,VWS V14.01,2013-08-12 09:15:00,
2013-08-12 04:20:00,66.8,65.6,30.06,North,5,2.0,8.0,96,0.24,,---,0.25,VWS V14.01,2013-08-12 09:20:00,
2013-08-12 04:25:00,66.7,65.5,30.04,ENE,61,3.0,8.0,96,0.40,,---,0.41,VWS V14.01,2013-08-12 09:25:00,
2013-08-12 04:30:00,66.6,65.4,30.03,ENE,60,5.0,10.0,96,0.54,,---,0.55,VWS V14.01,2013-08-12 09:30:00,
2013-08-12 04:35:00,66.5,65.6,30.03,SE,128,0.0,8.0,97,0.58,,---,0.59,VWS V14.01,2013-08-12 09:35:00,
2013-08-12 04:40:00,66.5,65.6,30.04,SSE,148,0.0,8.0,97,0.60,,---,0.61,VWS V14.01,2013-08-12 09:40:00,
2013-08-12 04:45:00,66.6,65.7,30.04,ENE,77,0.0,8.0,97,0.61,,---,0.62,VWS V14.01,2013-08-12 09:45:00,
2013-08-12 04:50:00,66.6,65.7,30.05,North,359,0.0,0.0,97,0.66,,---,0.67,VWS V14.01,2013-08-12 09:50:00,
2013-08-12 04:55:00,66.6,65.7,30.05,NNE,30,0.0,1.0,97,0.69,,---,0.70,VWS V14.01,2013-08-12 09:55:00,
2013-08-12 05:00:00,66.6,65.7,30.05,NE,52,0.0,1.0,97,0.72,,---,0.73,VWS V14.01,2013-08-12 10:00:00,
2013-08-12 05:05:00,66.6,66.0,30.04,SE,143,0.0,1.0,98,0.70,,---,0.74,VWS V14.01,2013-08-12 10:05:00,
2013-08-12 05:10:00,66.7,66.1,30.04,SSE,158,0.0,1.0,98,0.70,,---,0.74,VWS V14.01,2013-08-12 10:10:00,
2013-08-12 05:15:00,66.6,66.0,30.04,South,180,0.0,1.0,98,0.71,,---,0.75,VWS V14.01,2013-08-12 10:15:00,
2013-08-12 05:20:00,66.7,66.1,30.03,SE,136,1.0,1.0,98,0.62,,---,0.78,VWS V14.01,2013-08-12 10:20:00,
2013-08-12 05:25:00,66.7,66.1,30.02,ESE,107,0.0,4.0,98,0.63,,---,0.79,VWS V14.01,2013-08-12 10:25:00,
2013-08-12 05:30:00,66.9,66.3,30.02,ESE,107,4.0,5.0,98,0.63,,---,0.79,VWS V14.01,2013-08-12 10:30:00,
2013-08-12 05:35:00,66.8,66.2,30.03,SSE,160,0.0,4.0,98,0.26,,---,0.81,VWS V14.01,2013-08-12 10:35:00,
2013-08-12 05:40:00,66.8,66.2,30.01,East,86,2.0,4.0,98,0.27,,---,0.82,VWS V14.01,2013-08-12 10:40:00,
2013-08-12 05:45:00,66.9,66.3,29.99,SE,125,2.0,5.0,98,0.28,,---,0.83,VWS V14.01,2013-08-12 10:45:00,
2013-08-12 05:50:00,66.5,66.5,29.99,ENE,73,4.0,4.0,100,0.20,,---,0.83,VWS V14.01,2013-08-12 10:50:00,
2013-08-12 05:55:00,66.5,66.5,30.00,ENE,73,4.0,4.0,100,0.20,,---,0.83,VWS V14.01,2013-08-12 10:55:00,
2013-08-12 06:00:00,66.5,66.5,30.00,ENE,73,4.0,4.0,100,0.20,,---,0.83,VWS V14.01,2013-08-12 11:00:00,
2013-08-12 06:05:00,66.5,66.5,30.01,ENE,73,4.0,4.0,100,0.10,,---,0.83,VWS V14.01,2013-08-12 11:05:00,
2013-08-12 06:10:00,66.5,66.5,30.00,ENE,73,4.0,4.0,100,0.10,,---,0.83,VWS V14.01,2013-08-12 11:10:00,
2013-08-12 06:15:00,66.5,66.5,30.00,ENE,73,4.0,4.0,100,0.10,,---,0.83,VWS V14.01,2013-08-12 11:15:00,
2013-08-12 06:20:00,66.5,66.5,30.00,ENE,73,4.0,4.0,100,0.08,,---,0.83,VWS V14.01,2013-08-12 11:20:00,
2013-08-12 06:25:00,66.5,66.5,30.00,ENE,73,4.0,4.0,100,0.08,,---,0.83,VWS V14.01,2013-08-12 11:25:00,
2013-08-12 06:30:00,66.5,66.5,29.99,ENE,73,4.0,4.0,100,0.08,,---,0.83,VWS V14.01,2013-08-12 11:30:00,
2013-08-12 06:35:00,66.5,66.5,29.99,ENE,73,4.0,4.0,100,0.04,,---,0.83,VWS V14.01,2013-08-12 11:35:00,
2013-08-12 06:40:00,66.5,66.5,30.00,ENE,73,4.0,4.0,100,0.04,,---,0.83,VWS V14.01,2013-08-12 11:40:00,
2013-08-12 06:45:00,66.5,66.5,30.00,ENE,73,4.0,4.0,100,0.04,,---,0.83,VWS V14.01,2013-08-12 11:45:00,
2013-08-12 06:50:00,66.5,66.5,30.01,ENE,73,4.0,4.0,100,0.00,,---,0.83,VWS V14.01,2013-08-12 11:50:00,
2013-08-12 06:55:00,66.5,66.5,30.01,ENE,73,4.0,4.0,100,0.00,,---,0.83,VWS V14.01,2013-08-12 11:55:00,
2013-08-12 07:00:00,66.5,66.5,30.01,ENE,73,4.0,4.0,100,0.00,,---,0.83,VWS V14.01,2013-08-12 12:00:00,
2013-08-12 07:05:00,66.5,66.5,30.02,ENE,73,4.0,4.0,100,0.00,,---,0.83,VWS V14.01,2013-08-12 12:05:00,
2013-08-12 07:10:00,66.5,66.5,30.02,ENE,73,4.0,4.0,100,0.00,,---,0.83,VWS V14.01,2013-08-12 12:10:00,
2013-08-12 07:15:00,66.5,66.5,30.02,ENE,73,4.0,4.0,100,0.00,,---,0.83,VWS V14.01,2013-08-12 12:15:00,
2013-08-12 07:20:00,66.5,66.5,30.01,ENE,73,4.0,4.0,100,0.00,,---,0.83,VWS V14.01,2013-08-12 12:20:00,
2013-08-12 07:25:00,66.5,66.5,30.01,ENE,73,4.0,4.0,100,0.00,,---,0.83,VWS V14.01,2013-08-12 12:25:00,
2013-08-12 07:30:00,66.5,66.5,30.01,ENE,73,4.0,4.0,100,0.00,,---,0.83,VWS V14.01,2013-08-12 12:30:00,
2013-08-12 07:35:00,66.5,66.5,30.01,ENE,73,4.0,4.0,100,0.00,,---,0.83,VWS V14.01,2013-08-12 12:35:00,
2013-08-12 07:40:00,66.5,66.5,30.01,ENE,73,4.0,4.0,100,0.00,,---,0.83,VWS V14.01,2013-08-12 12:40:00,
2013-08-12 07:45:00,66.5,66.5,30.01,ENE,73,4.0,4.0,100,0.00,,---,0.83,VWS V14.01,2013-08-12 12:45:00,
2013-08-12 07:50:00,66.5,66.5,30.01,ENE,73,4.0,4.0,100,0.00,,---,0.83,VWS V14.01,2013-08-12 12:50:00,
2013-08-12 07:55:00,67.0,66.4,30.01,SSE,150,0.0,4.0,98,0.00,,---,0.83,VWS V14.01,2013-08-12 12:55:00,
2013-08-12 08:00:00,67.3,66.7,30.01,NE,53,3.0,4.0,98,0.00,,---,0.83,VWS V14.01,2013-08-12 13:00:00,
2013-08-12 08:05:00,67.5,66.9,30.01,East,90,0.0,3.0,98,0.00,,---,0.83,VWS V14.01,2013-08-12 13:05:00,
2013-08-12 08:10:00,67.9,67.3,30.01,SE,138,0.0,3.0,98,0.00,,---,0.83,VWS V14.01,2013-08-12 13:10:00,
2013-08-12 08:15:00,68.3,67.7,30.02,ENE,63,0.0,3.0,98,0.00,,---,0.83,VWS V14.01,2013-08-12 13:15:00,
2013-08-12 08:20:00,68.3,67.4,30.02,East,100,0.0,3.0,97,0.00,,---,0.83,VWS V14.01,2013-08-12 13:20:00,
2013-08-12 08:25:00,68.6,68.0,30.02,NE,50,1.0,3.0,98,0.00,,---,0.83,VWS V14.01,2013-08-12 13:25:00,
2013-08-12 08:30:00,68.6,67.7,30.03,ESE,108,0.0,3.0,97,0.00,,---,0.83,VWS V14.01,2013-08-12 13:30:00,
2013-08-12 08:35:00,68.7,67.8,30.03,SE,140,0.0,2.0,97,0.00,,---,0.83,VWS V14.01,2013-08-12 13:35:00,
2013-08-12 08:40:00,69.0,68.1,30.03,South,169,0.0,2.0,97,0.00,,---,0.83,VWS V14.01,2013-08-12 13:40:00,
2013-08-12 08:45:00,69.0,68.1,30.03,South,169,0.0,2.0,97,0.00,,---,0.83,VWS V14.01,2013-08-12 13:45:00,
2013-08-12 08:50:00,69.1,68.2,30.03,SE,129,0.0,1.0,97,0.00,,---,0.83,VWS V14.01,2013-08-12 13:50:00,
2013-08-12 08:55:00,69.2,68.3,30.03,SE,140,1.0,1.0,97,0.00,,---,0.83,VWS V14.01,2013-08-12 13:55:00,
2013-08-12 09:00:00,69.2,68.3,30.02,ESE,115,0.0,2.0,97,0.00,,---,0.83,VWS V14.01,2013-08-12 14:00:00,
2013-08-12 09:05:00,69.3,68.4,30.02,SSE,154,0.0,0.0,97,0.00,,---,0.83,VWS V14.01,2013-08-12 14:05:00,
2013-08-12 09:10:00,69.4,68.5,30.02,ESE,116,0.0,1.0,97,0.00,,---,0.83,VWS V14.01,2013-08-12 14:10:00,
2013-08-12 09:15:00,70.0,69.4,30.02,South,173,0.0,1.0,98,0.00,,---,0.83,VWS V14.01,2013-08-12 14:15:00,
2013-08-12 09:20:00,70.4,69.5,30.02,SSE,153,0.0,1.0,97,0.00,,---,0.83,VWS V14.01,2013-08-12 14:20:00,
2013-08-12 09:25:00,71.0,70.1,30.02,SSE,147,1.0,1.0,97,0.00,,---,0.83,VWS V14.01,2013-08-12 14:25:00,
2013-08-12 09:30:00,71.7,71.1,30.02,SE,125,0.0,2.0,98,0.00,,---,0.83,VWS V14.01,2013-08-12 14:30:00,
2013-08-12 09:35:00,72.3,71.4,30.02,SE,138,0.0,2.0,97,0.00,,---,0.83,VWS V14.01,2013-08-12 14:35:00,
2013-08-12 09:40:00,72.4,71.2,30.02,SE,125,0.0,2.0,96,0.00,,---,0.83,VWS V14.01,2013-08-12 14:40:00,
2013-08-12 09:45:00,72.3,71.1,30.02,NNE,31,0.0,2.0,96,0.00,,---,0.83,VWS V14.01,2013-08-12 14:45:00,
2013-08-12 09:49:00,72.2,70.7,30.02,WNW,300,0.0,1.0,95,0.00,,---,0.83,VWS V14.01,2013-08-12 14:49:00,
2013-08-12 09:54:00,72.0,70.5,30.02,NW,308,0.0,1.0,95,0.00,,---,0.83,VWS V14.01,2013-08-12 14:54:00,
2013-08-12 09:59:00,72.6,71.4,30.02,SW,224,0.0,1.0,96,0.00,,---,0.83,VWS V14.01,2013-08-12 14:59:00,
2013-08-12 10:04:00,73.4,71.9,30.02,SW,236,0.0,1.0,95,0.00,,---,0.83,VWS V14.01,2013-08-12 15:04:00,
2013-08-12 10:09:00,73.7,72.2,30.02,NNW,340,0.0,1.0,95,0.00,,---,0.83,VWS V14.01,2013-08-12 15:09:00,
2013-08-12 10:14:00,74.2,72.7,30.02,NE,39,0.0,1.0,95,0.00,,---,0.83,VWS V14.01,2013-08-12 15:14:00,
2013-08-12 10:19:00,74.4,72.9,30.02,ESE,119,0.0,1.0,95,0.00,,---,0.83,VWS V14.01,2013-08-12 15:19:00,
2013-08-12 10:24:00,74.8,73.3,30.02,SSE,152,0.0,3.0,95,0.00,,---,0.83,VWS V14.01,2013-08-12 15:24:00,
2013-08-12 10:29:00,75.1,72.6,30.02,East,96,2.0,4.0,92,0.00,,---,0.83,VWS V14.01,2013-08-12 15:29:00,
2013-08-12 10:34:00,75.8,72.7,30.03,SW,235,0.0,1.0,90,0.00,,---,0.83,VWS V14.01,2013-08-12 15:34:00,
2013-08-12 10:39:00,76.7,72.5,30.03,SSE,159,0.0,1.0,87,0.00,,---,0.83,VWS V14.01,2013-08-12 15:39:00,
2013-08-12 10:44:00,77.3,72.1,30.03,NE,46,2.0,2.0,84,0.00,,---,0.83,VWS V14.01,2013-08-12 15:44:00,
2013-08-12 10:49:00,77.4,71.8,30.03,East,101,1.0,2.0,83,0.00,,---,0.83,VWS V14.01,2013-08-12 15:49:00,
2013-08-12 10:54:00,78.0,72.1,30.03,SSE,159,0.0,2.0,82,0.00,,---,0.83,VWS V14.01,2013-08-12 15:54:00,
2013-08-12 10:59:00,78.7,72.0,30.03,SSE,163,0.0,2.0,80,0.00,,---,0.83,VWS V14.01,2013-08-12 15:59:00,
2013-08-12 11:04:00,78.6,72.3,30.03,SE,125,0.0,1.0,81,0.00,,---,0.83,VWS V14.01,2013-08-12 16:04:00,
2013-08-12 11:09:00,79.3,72.6,30.03,SE,128,0.0,4.0,80,0.00,,---,0.83,VWS V14.01,2013-08-12 16:09:00,
2013-08-12 11:14:00,79.9,72.8,30.03,SSE,157,0.0,4.0,79,0.00,,---,0.83,VWS V14.01,2013-08-12 16:14:00,
2013-08-12 11:19:00,80.7,72.4,30.03,SW,224,1.0,1.0,76,0.00,,---,0.83,VWS V14.01,2013-08-12 16:19:00,
2013-08-12 11:24:00,80.7,72.4,30.03,SE,141,0.0,4.0,76,0.00,,---,0.83,VWS V14.01,2013-08-12 16:24:00,
2013-08-12 11:29:00,80.4,72.2,30.03,SSW,203,0.0,4.0,76,0.00,,---,0.83,VWS V14.01,2013-08-12 16:29:00,
2013-08-12 11:34:00,80.6,72.7,30.03,SE,141,0.0,1.0,77,0.00,,---,0.83,VWS V14.01,2013-08-12 16:34:00,
2013-08-12 11:39:00,81.0,72.7,30.03,SE,139,0.0,2.0,76,0.00,,---,0.83,VWS V14.01,2013-08-12 16:39:00,
2013-08-12 11:44:00,81.3,72.6,30.03,SSE,150,2.0,3.0,75,0.00,,---,0.83,VWS V14.01,2013-08-12 16:44:00,
2013-08-12 11:49:00,81.4,72.7,30.03,SE,135,1.0,1.0,75,0.00,,---,0.83,VWS V14.01,2013-08-12 16:49:00,
2013-08-12 11:54:00,81.7,72.6,30.03,SSE,152,0.0,2.0,74,0.00,,---,0.83,VWS V14.01,2013-08-12 16:54:00,
2013-08-12 11:59:00,81.6,72.5,30.03,SW,229,0.0,2.0,74,0.00,,---,0.83,VWS V14.01,2013-08-12 16:59:00,
2013-08-12 12:04:00,81.5,72.0,30.03,SSE,153,0.0,1.0,73,0.00,,---,0.83,VWS V14.01,2013-08-12 17:04:00,
2013-08-12 12:07:00,81.4,71.9,30.02,SE,144,0.0,2.0,73,0.00,,---,0.83,VWS V14.01,2013-08-12 17:07:00,
2013-08-12 12:12:00,81.6,72.5,30.02,WSW,245,0.0,2.0,74,0.00,,---,0.83,VWS V14.01,2013-08-12 17:12:00,
2013-08-12 12:17:00,81.4,72.3,30.02,SW,225,0.0,1.0,74,0.00,,---,0.83,VWS V14.01,2013-08-12 17:17:00,
2013-08-12 12:22:00,81.1,72.4,30.02,WNW,302,0.0,1.0,75,0.00,,---,0.83,VWS V14.01,2013-08-12 17:22:00,
2013-08-12 12:27:00,80.7,72.0,30.02,NW,322,0.0,1.0,75,0.00,,---,0.83,VWS V14.01,2013-08-12 17:27:00,
2013-08-12 12:32:00,81.1,72.4,30.02,SSW,210,1.0,1.0,75,0.00,,---,0.83,VWS V14.01,2013-08-12 17:32:00,
2013-08-12 12:37:00,82.0,72.9,30.02,West,276,0.0,1.0,74,0.00,,---,0.83,VWS V14.01,2013-08-12 17:37:00,
2013-08-12 12:42:00,82.8,72.9,30.02,South,190,0.0,5.0,72,0.00,,---,0.83,VWS V14.01,2013-08-12 17:42:00,
2013-08-12 12:47:00,83.3,72.5,30.02,WNW,295,0.0,1.0,70,0.00,,---,0.83,VWS V14.01,2013-08-12 17:47:00,
2013-08-12 12:52:00,82.6,72.2,30.02,NW,321,0.0,3.0,71,0.00,,---,0.83,VWS V14.01,2013-08-12 17:52:00,
2013-08-12 12:57:00,83.1,72.7,30.02,West,269,0.0,3.0,71,0.00,,---,0.83,VWS V14.01,2013-08-12 17:57:00,
2013-08-12 13:02:00,83.3,72.1,30.02,WNW,290,0.0,1.0,69,0.00,,---,0.83,VWS V14.01,2013-08-12 18:02:00,
2013-08-12 13:07:00,82.3,71.5,30.02,NW,306,0.0,1.0,70,0.00,,---,0.83,VWS V14.01,2013-08-12 18:07:00,
2013-08-12 13:12:00,82.2,71.9,30.02,NE,40,0.0,1.0,71,0.00,,---,0.83,VWS V14.01,2013-08-12 18:12:00,
2013-08-12 13:17:00,82.4,72.5,30.02,NNE,19,0.0,0.0,72,0.00,,---,0.83,VWS V14.01,2013-08-12 18:17:00,
2013-08-12 13:22:00,83.1,72.3,30.01,ENE,63,1.0,3.0,70,0.00,,---,0.83,VWS V14.01,2013-08-12 18:22:00,
2013-08-12 13:27:00,83.8,73.0,30.01,SSE,155,0.0,3.0,70,0.00,,---,0.83,VWS V14.01,2013-08-12 18:27:00,
2013-08-12 13:32:00,84.8,72.6,30.01,East,79,1.0,4.0,67,0.00,,---,0.83,VWS V14.01,2013-08-12 18:32:00,
2013-08-12 13:37:00,83.8,72.6,30.01,ESE,113,1.0,5.0,69,0.00,,---,0.83,VWS V14.01,2013-08-12 18:37:00,
2013-08-12 13:42:00,83.2,72.8,30.01,NE,50,3.0,5.0,71,0.00,,---,0.83,VWS V14.01,2013-08-12 18:42:00,
2013-08-12 13:47:00,83.0,72.6,30.00,NW,309,1.0,3.0,71,0.00,,---,0.83,VWS V14.01,2013-08-12 18:47:00,
2013-08-12 13:52:00,83.1,73.1,30.00,NNW,340,0.0,3.0,72,0.00,,---,0.83,VWS V14.01,2013-08-12 18:52:00,
2013-08-12 13:57:00,83.9,72.2,30.00,WNW,301,0.0,3.0,68,0.00,,---,0.83,VWS V14.01,2013-08-12 18:57:00,
2013-08-12 14:02:00,84.2,72.9,30.00,NW,319,0.0,0.0,69,0.00,,---,0.83,VWS V14.01,2013-08-12 19:02:00,
2013-08-12 14:07:00,85.1,72.0,30.00,NW,315,0.0,1.0,65,0.00,,---,0.83,VWS V14.01,2013-08-12 19:07:00,
2013-08-12 14:12:00,84.7,71.6,30.00,WNW,291,0.0,1.0,65,0.00,,---,0.83,VWS V14.01,2013-08-12 19:12:00,
2013-08-12 14:17:00,84.6,71.1,30.00,WNW,287,3.0,4.0,64,0.00,,---,0.83,VWS V14.01,2013-08-12 19:17:00,
2013-08-12 14:22:00,84.7,72.1,30.00,West,276,0.0,5.0,66,0.00,,---,0.83,VWS V14.01,2013-08-12 19:22:00,
2013-08-12 14:27:00,85.0,72.4,30.00,North,8,0.0,5.0,66,0.00,,---,0.83,VWS V14.01,2013-08-12 19:27:00,
2013-08-12 14:32:00,84.9,72.7,30.00,ENE,73,1.0,3.0,67,0.00,,---,0.83,VWS V14.01,2013-08-12 19:32:00,
2013-08-12 14:37:00,85.5,72.4,30.00,East,88,2.0,5.0,65,0.00,,---,0.83,VWS V14.01,2013-08-12 19:37:00,
2013-08-12 14:42:00,84.8,71.7,30.00,NW,310,1.0,5.0,65,0.00,,---,0.83,VWS V14.01,2013-08-12 19:42:00,
2013-08-12 14:47:00,85.2,71.7,30.00,SSW,205,0.0,1.0,64,0.00,,---,0.83,VWS V14.01,2013-08-12 19:47:00,
2013-08-12 14:52:00,85.8,72.2,30.00,NNW,346,0.0,4.0,64,0.00,,---,0.83,VWS V14.01,2013-08-12 19:52:00,
2013-08-12 14:57:00,84.8,71.7,30.00,NNE,25,2.0,5.0,65,0.00,,---,0.83,VWS V14.01,2013-08-12 19:57:00,
2013-08-12 15:02:00,84.4,71.8,30.00,NNE,14,0.0,1.0,66,0.00,,---,0.83,VWS V14.01,2013-08-12 20:02:00,
2013-08-12 15:07:00,84.8,70.3,30.00,NNW,328,0.0,1.0,62,0.00,,---,0.83,VWS V14.01,2013-08-12 20:07:00,
2013-08-12 15:12:00,85.0,71.0,29.99,ENE,58,1.0,3.0,63,0.00,,---,0.83,VWS V14.01,2013-08-12 20:12:00,
2013-08-12 15:17:00,86.1,70.6,29.99,SE,133,1.0,1.0,60,0.00,,---,0.83,VWS V14.01,2013-08-12 20:17:00,
2013-08-12 15:22:00,87.2,71.1,29.99,NE,53,2.0,3.0,59,0.00,,---,0.83,VWS V14.01,2013-08-12 20:22:00,
2013-08-12 15:27:00,87.3,69.7,29.99,East,82,5.0,5.0,56,0.00,,---,0.83,VWS V14.01,2013-08-12 20:27:00,
2013-08-12 15:32:00,86.4,69.9,29.99,NE,47,2.0,4.0,58,0.00,,---,0.83,VWS V14.01,2013-08-12 20:32:00,
2013-08-12 15:37:00,85.4,70.4,29.99,NE,40,0.0,4.0,61,0.00,,---,0.83,VWS V14.01,2013-08-12 20:37:00,
2013-08-12 15:42:00,85.9,71.4,29.99,NW,308,3.0,4.0,62,0.00,,---,0.83,VWS V14.01,2013-08-12 20:42:00,
2013-08-12 15:47:00,85.8,71.3,29.99,NNW,328,1.0,4.0,62,0.00,,---,0.83,VWS V14.01,2013-08-12 20:47:00,
2013-08-12 15:52:00,86.0,71.5,29.98,NW,326,3.0,4.0,62,0.00,,---,0.83,VWS V14.01,2013-08-12 20:52:00,
2013-08-12 15:57:00,86.4,70.4,29.98,NW,311,1.0,4.0,59,0.00,,---,0.83,VWS V14.01,2013-08-12 20:57:00,
2013-08-12 16:02:00,86.2,70.2,29.98,NW,324,0.0,4.0,59,0.00,,---,0.83,VWS V14.01,2013-08-12 21:02:00,
2013-08-12 16:07:00,86.8,70.8,29.98,East,82,1.0,8.0,59,0.00,,---,0.83,VWS V14.01,2013-08-12 21:07:00,
2013-08-12 16:12:00,86.9,71.3,29.98,WNW,291,0.0,8.0,60,0.00,,---,0.83,VWS V14.01,2013-08-12 21:12:00,
2013-08-12 16:17:00,87.1,70.5,29.98,NE,41,2.0,4.0,58,0.00,,---,0.83,VWS V14.01,2013-08-12 21:17:00,
2013-08-12 16:22:00,87.0,69.4,29.98,NW,305,2.0,6.0,56,0.00,,---,0.83,VWS V14.01,2013-08-12 21:22:00,
2013-08-12 16:27:00,86.9,70.4,29.98,ENE,68,3.0,6.0,58,0.00,,---,0.83,VWS V14.01,2013-08-12 21:27:00,
2013-08-12 16:32:00,86.6,70.6,29.97,NE,47,3.0,3.0,59,0.00,,---,0.83,VWS V14.01,2013-08-12 21:32:00,
2013-08-12 16:37:00,87.1,71.5,29.97,NW,305,2.0,4.0,60,0.00,,---,0.83,VWS V14.01,2013-08-12 21:37:00,
2013-08-12 16:42:00,86.9,71.3,29.97,NW,310,8.0,8.0,60,0.00,,---,0.83,VWS V14.01,2013-08-12 21:42:00,
2013-08-12 16:47:00,86.5,70.0,29.97,NE,44,1.0,8.0,58,0.00,,---,0.83,VWS V14.01,2013-08-12 21:47:00,
2013-08-12 16:52:00,86.7,70.7,29.97,NE,50,4.0,8.0,59,0.00,,---,0.83,VWS V14.01,2013-08-12 21:52:00,
2013-08-12 16:57:00,86.6,70.1,29.97,ESE,123,0.0,8.0,58,0.00,,---,0.83,VWS V14.01,2013-08-12 21:57:00,
2013-08-12 17:02:00,86.5,71.0,29.97,ENE,57,6.0,6.0,60,0.00,,---,0.83,VWS V14.01,2013-08-12 22:02:00,
2013-08-12 17:07:00,86.5,70.5,29.97,East,82,5.0,8.0,59,0.00,,---,0.83,VWS V14.01,2013-08-12 22:07:00,
2013-08-12 17:12:00,86.1,70.1,29.97,NE,53,4.0,8.0,59,0.00,,---,0.83,VWS V14.01,2013-08-12 22:12:00,
2013-08-12 17:17:00,86.0,70.5,29.97,NE,46,1.0,5.0,60,0.00,,---,0.83,VWS V14.01,2013-08-12 22:17:00,
2013-08-12 17:22:00,86.1,70.6,29.96,East,99,1.0,8.0,60,0.00,,---,0.83,VWS V14.01,2013-08-12 22:22:00,
2013-08-12 17:27:00,86.2,70.2,29.96,NNE,30,2.0,8.0,59,0.00,,---,0.83,VWS V14.01,2013-08-12 22:27:00,
2013-08-12 17:32:00,85.6,69.6,29.96,ENE,58,4.0,6.0,59,0.00,,---,0.83,VWS V14.01,2013-08-12 22:32:00,
2013-08-12 17:37:00,85.7,69.2,29.96,ENE,63,2.0,9.0,58,0.00,,---,0.83,VWS V14.01,2013-08-12 22:37:00,
2013-08-12 17:42:00,85.8,69.8,29.96,NE,40,5.0,9.0,59,0.00,,---,0.83,VWS V14.01,2013-08-12 22:42:00,
2013-08-12 17:47:00,86.1,70.1,29.95,ENE,70,2.0,4.0,59,0.00,,---,0.83,VWS V14.01,2013-08-12 22:47:00,
2013-08-12 17:52:00,85.6,69.1,29.95,NE,43,1.0,8.0,58,0.00,,---,0.83,VWS V14.01,2013-08-12 22:52:00,
2013-08-12 17:57:00,85.7,69.2,29.95,NNW,342,0.0,8.0,58,0.00,,---,0.83,VWS V14.01,2013-08-12 22:57:00,
2013-08-12 18:02:00,86.1,69.1,29.95,ENE,58,1.0,4.0,57,0.00,,---,0.83,VWS V14.01,2013-08-12 23:02:00,
2013-08-12 18:07:00,86.1,69.1,29.96,NE,53,4.0,7.0,57,0.00,,---,0.83,VWS V14.01,2013-08-12 23:07:00,
2013-08-12 18:12:00,85.9,68.9,29.95,East,91,2.0,7.0,57,0.00,,---,0.83,VWS V14.01,2013-08-12 23:12:00,
2013-08-12 18:17:00,85.9,69.4,29.95,SE,136,4.0,4.0,58,0.00,,---,0.83,VWS V14.01,2013-08-12 23:17:00,
2013-08-12 18:22:00,85.6,69.1,29.96,ENE,62,3.0,7.0,58,0.00,,---,0.83,VWS V14.01,2013-08-12 23:22:00,
2013-08-12 18:27:00,85.4,69.0,29.95,NE,55,5.0,7.0,58,0.00,,---,0.83,VWS V14.01,2013-08-12 23:27:00,
2013-08-12 18:32:00,85.2,68.8,29.95,NNE,30,4.0,7.0,58,0.00,,---,0.83,VWS V14.01,2013-08-12 23:32:00,
2013-08-12 18:37:00,85.0,69.1,29.95,NE,37,6.0,10.0,59,0.00,,---,0.83,VWS V14.01,2013-08-12 23:37:00,
2013-08-12 18:42:00,85.0,69.6,29.95,NE,49,4.0,10.0,60,0.00,,---,0.83,VWS V14.01,2013-08-12 23:42:00,
2013-08-12 18:46:00,85.2,69.3,29.95,NE,48,6.0,9.0,59,0.00,,---,0.83,VWS V14.01,2013-08-12 23:46:00,
2013-08-12 18:51:00,85.0,69.1,29.96,North,359,7.0,9.0,59,0.00,,---,0.83,VWS V14.01,2013-08-12 23:51:00,
2013-08-12 18:56:00,84.8,68.9,29.96,ENE,60,4.0,9.0,59,0.00,,---,0.83,VWS V14.01,2013-08-12 23:56:00,
2013-08-12 19:01:00,84.8,68.9,29.96,ENE,58,2.0,5.0,59,0.00,,---,0.83,VWS V14.01,2013-08-13 00:01:00,
2013-08-12 19:06:00,84.5,69.1,29.96,East,80,3.0,9.0,60,0.00,,---,0.83,VWS V14.01,2013-08-13 00:06:00,
2013-08-12 19:11:00,84.3,69.4,29.96,ENE,68,1.0,9.0,61,0.00,,---,0.83,VWS V14.01,2013-08-13 00:11:00,
2013-08-12 19:16:00,84.3,69.4,29.96,NE,46,2.0,4.0,61,0.00,,---,0.83,VWS V14.01,2013-08-13 00:16:00,
2013-08-12 19:21:00,84.4,69.0,29.96,ESE,118,1.0,6.0,60,0.00,,---,0.83,VWS V14.01,2013-08-13 00:21:00,
2013-08-12 19:26:00,84.3,68.9,29.96,East,94,1.0,6.0,60,0.00,,---,0.83,VWS V14.01,2013-08-13 00:26:00,
2013-08-12 19:31:00,84.2,68.8,29.96,ENE,67,2.0,4.0,60,0.00,,---,0.83,VWS V14.01,2013-08-13 00:31:00,
2013-08-12 19:36:00,84.1,69.2,29.96,ENE,58,2.0,6.0,61,0.00,,---,0.83,VWS V14.01,2013-08-13 00:36:00,
2013-08-12 19:41:00,83.8,68.9,29.96,East,79,2.0,6.0,61,0.00,,---,0.83,VWS V14.01,2013-08-13 00:41:00,
2013-08-12 19:46:00,83.6,69.2,29.97,ENE,66,2.0,3.0,62,0.00,,---,0.83,VWS V14.01,2013-08-13 00:46:00,
2013-08-12 19:51:00,83.4,69.5,29.97,ESE,102,2.0,6.0,63,0.00,,---,0.83,VWS V14.01,2013-08-13 00:51:00,
2013-08-12 19:56:00,83.0,69.6,29.97,ENE,60,7.0,8.0,64,0.00,,---,0.83,VWS V14.01,2013-08-13 00:56:00,
2013-08-12 20:01:00,82.5,69.6,29.97,ENE,64,4.0,6.0,65,0.00,,---,0.83,VWS V14.01,2013-08-13 01:01:00,
2013-08-12 20:06:00,82.1,70.1,29.97,ENE,68,2.0,6.0,67,0.00,,---,0.83,VWS V14.01,2013-08-13 01:06:00,
2013-08-12 20:11:00,81.7,69.7,29.97,ENE,70,2.0,6.0,67,0.00,,---,0.83,VWS V14.01,2013-08-13 01:11:00,
2013-08-12 20:16:00,81.4,69.8,29.98,ENE,63,3.0,3.0,68,0.00,,---,0.83,VWS V14.01,2013-08-13 01:16:00,
2013-08-12 20:21:00,81.1,69.6,29.98,NE,56,6.0,6.0,68,0.00,,---,0.83,VWS V14.01,2013-08-13 01:21:00,
2013-08-12 20:26:00,80.8,69.7,29.98,ENE,63,2.0,6.0,69,0.00,,---,0.83,VWS V14.01,2013-08-13 01:26:00,
2013-08-12 20:31:00,80.6,69.9,29.99,ESE,104,2.0,3.0,70,0.00,,---,0.83,VWS V14.01,2013-08-13 01:31:00,
2013-08-12 20:36:00,80.3,69.6,29.99,NE,53,2.0,5.0,70,0.00,,---,0.83,VWS V14.01,2013-08-13 01:36:00,
2013-08-12 20:41:00,80.0,69.8,29.99,East,98,1.0,5.0,71,0.00,,---,0.83,VWS V14.01,2013-08-13 01:41:00,
2013-08-12 20:46:00,79.8,70.0,30.00,East,92,0.0,2.0,72,0.00,,---,0.83,VWS V14.01,2013-08-13 01:46:00,
2013-08-12 20:51:00,79.5,69.7,30.00,East,79,2.0,2.0,72,0.00,,---,0.83,VWS V14.01,2013-08-13 01:51:00,
2013-08-12 20:56:00,79.4,70.0,30.00,NE,56,3.0,4.0,73,0.00,,---,0.83,VWS V14.01,2013-08-13 01:56:00,
2013-08-12 21:01:00,79.2,69.8,30.00,ESE,114,2.0,3.0,73,0.00,,---,0.83,VWS V14.01,2013-08-13 02:01:00,
2013-08-12 21:06:00,79.0,69.6,30.00,ESE,103,0.0,3.0,73,0.00,,---,0.83,VWS V14.01,2013-08-13 02:06:00,
2013-08-12 21:11:00,78.9,69.9,30.00,ENE,61,1.0,3.0,74,0.00,,---,0.83,VWS V14.01,2013-08-13 02:11:00,
2013-08-12 21:16:00,78.8,69.8,30.00,ENE,71,1.0,2.0,74,0.00,,---,0.83,VWS V14.01,2013-08-13 02:16:00,
2013-08-12 21:21:00,78.6,70.0,30.00,ENE,73,1.0,3.0,75,0.00,,---,0.83,VWS V14.01,2013-08-13 02:21:00,
2013-08-12 21:26:00,78.4,69.8,30.00,ENE,62,3.0,3.0,75,0.00,,---,0.83,VWS V14.01,2013-08-13 02:26:00,
2013-08-12 21:31:00,78.2,69.6,30.00,ESE,116,0.0,1.0,75,0.00,,---,0.83,VWS V14.01,2013-08-13 02:31:00,
2013-08-12 21:36:00,78.0,69.8,30.00,ENE,70,0.0,2.0,76,0.00,,---,0.83,VWS V14.01,2013-08-13 02:36:00,
2013-08-12 21:41:00,77.8,69.6,30.01,ESE,107,0.0,3.0,76,0.00,,---,0.83,VWS V14.01,2013-08-13 02:41:00,
2013-08-12 21:46:00,77.7,69.5,30.01,ESE,107,0.0,2.0,76,0.00,,---,0.83,VWS V14.01,2013-08-13 02:46:00,
2013-08-12 21:51:00,77.5,69.3,30.01,SE,125,0.0,2.0,76,0.00,,---,0.83,VWS V14.01,2013-08-13 02:51:00,
2013-08-12 21:56:00,77.4,69.2,30.01,East,91,2.0,2.0,76,0.00,,---,0.83,VWS V14.01,2013-08-13 02:56:00,
2013-08-12 22:01:00,77.4,69.2,30.01,ENE,77,0.0,2.0,76,0.00,,---,0.83,VWS V14.01,2013-08-13 03:01:00,
2013-08-12 22:06:00,77.4,68.9,30.01,ESE,123,0.0,4.0,75,0.00,,---,0.83,VWS V14.01,2013-08-13 03:06:00,
2013-08-12 22:11:00,77.3,68.8,30.02,SE,125,0.0,4.0,75,0.00,,---,0.83,VWS V14.01,2013-08-13 03:11:00,
2013-08-12 22:16:00,77.2,68.7,30.02,ESE,122,0.0,1.0,75,0.00,,---,0.83,VWS V14.01,2013-08-13 03:16:00,
2013-08-12 22:21:00,77.1,68.6,30.02,ENE,77,2.0,4.0,75,0.00,,---,0.83,VWS V14.01,2013-08-13 03:21:00,
2013-08-12 22:26:00,77.0,68.9,30.02,East,82,1.0,4.0,76,0.00,,---,0.83,VWS V14.01,2013-08-13 03:26:00,
2013-08-12 22:31:00,76.9,68.8,30.02,ENE,73,2.0,4.0,76,0.00,,---,0.83,VWS V14.01,2013-08-13 03:31:00,
2013-08-12 22:36:00,76.7,68.6,30.02,East,89,0.0,4.0,76,0.00,,---,0.83,VWS V14.01,2013-08-13 03:36:00,
2013-08-12 22:41:00,76.5,68.8,30.02,East,92,0.0,4.0,77,0.00,,---,0.83,VWS V14.01,2013-08-13 03:41:00,
2013-08-12 22:46:00,76.4,68.7,30.02,East,79,0.0,3.0,77,0.00,,---,0.83,VWS V14.01,2013-08-13 03:46:00,
2013-08-12 22:52:00,76.4,68.7,30.02,East,100,1.0,4.0,77,0.00,,---,0.83,VWS V14.01,2013-08-13 03:52:00,
2013-08-12 22:57:00,76.3,68.6,30.01,ENE,61,2.0,4.0,77,0.00,,---,0.83,VWS V14.01,2013-08-13 03:57:00,
2013-08-12 23:01:00,76.2,68.5,30.02,East,94,0.0,1.0,77,0.00,,---,0.83,VWS V14.01,2013-08-13 04:01:00,
2013-08-12 23:06:00,76.0,68.7,30.02,ESE,104,0.0,2.0,78,0.00,,---,0.83,VWS V14.01,2013-08-13 04:06:00,
2013-08-12 23:11:00,75.9,68.6,30.02,SE,129,0.0,2.0,78,0.00,,---,0.83,VWS V14.01,2013-08-13 04:11:00,
2013-08-12 23:16:00,75.8,68.5,30.03,East,80,0.0,0.0,78,0.00,,---,0.83,VWS V14.01,2013-08-13 04:16:00,
2013-08-12 23:20:00,75.8,68.1,30.03,ENE,76,0.0,1.0,77,0.00,,---,0.83,VWS V14.01,2013-08-13 04:20:00,
2013-08-12 23:25:00,75.5,67.8,30.03,East,84,0.0,1.0,77,0.00,,---,0.83,VWS V14.01,2013-08-13 04:25:00,
2013-08-12 23:30:00,75.2,67.9,30.03,East,82,0.0,0.0,78,0.00,,---,0.83,VWS V14.01,2013-08-13 04:30:00,
2013-08-12 23:35:00,75.1,67.8,30.02,SE,131,0.0,1.0,78,0.00,,---,0.83,VWS V14.01,2013-08-13 04:35:00,
2013-08-12 23:40:00,75.2,67.5,30.02,ESE,116,0.0,2.0,77,0.00,,---,0.83,VWS V14.01,2013-08-13 04:40:00,
2013-08-12 23:45:00,75.3,68.0,30.03,ESE,113,0.0,0.0,78,0.00,,---,0.83,VWS V14.01,2013-08-13 04:45:00,
2013-08-12 23:50:00,75.1,67.8,30.03,ESE,108,0.0,1.0,78,0.00,,---,0.83,VWS V14.01,2013-08-13 04:50:00,
2013-08-12 23:55:00,74.9,67.9,30.03,SE,141,0.0,2.0,79,0.00,,---,0.83,VWS V14.01,2013-08-13 04:55:00,